"Pseudo-MPEC" for GG0408

Created 2023 Oct 8 17:22:07 UT using Find_Orb

Click here for an explanation of pseudo-MPECs

 
 Astrometry: 
     GG0408 *MC2023 09 17S8Y#%?8AstrometryvrYredacted;19C]:(Y`viCxa7clickPaFYQ62
     GG0408  MC2023 09 17nL'XQFp'sP^hereCwu]YTC_+f\)MMYforisexplanationm]tseRQ62

Station data:
(Q62) iTelescope Observatory, Siding Spring  (S31.273286 E149.064420)
   Australia/NSW.  Observers H. Sato, T. Prystavski, M. Mattiazzo, A. Pearce,
   F. D. Romanov. 0.51-m f/6.8 astrograph + CCD + f/4.5 focal reducer0.43-m
   f/6.8 astrograph + CCD + focal reducer0.43-m f/6.8 astrograph + CCD0.10-m
   f/5 astrograph + CCD0.127-m f/5.6 refractor + CCD0.50-m f/6.8 reflector +
   CCD0.30-m f/9 reflector + CCD.

Orbital elements:  GG0408
   Perihelion 2023 Aug 10.33545 +/- 53 TT =  8:03:02 (JD 2460166.83545)
Epoch 2023 Sep 18.0 TT = JDT 2460205.5   Earth MOID: 0.2391      AutoNEOCP
M   3.77595760 +/- 27               (J2000 ecliptic)
n   0.09765940 +/- 0.208            Peri.  194.28258 +/- 80
a   4.67010507 +/- 6.64             Node   137.12866 +/- 42
e   0.7348373 +/- 0.293             Incl.   56.72155 +/- 17
P  10.09                   H 17.14  G  0.15   U 11.7  SR
q 1.23833749 +/- 0.434    Q 8.10187265 +/- 52.2
From 2 observations 2023 Sept. 17 (15.4 min); mean residual 0".01
Residuals in arcseconds: 
230917 Q62  .01-  .01-    230917 Q62  .01-  .01-    

Ephemerides (geocentric):
Date (UTC) HH   RA             Dec           delta  r     elong  mag " sig PA
---- --------  ------------   ------------  ------ ------ -----  --- --------
2023 10 08 17  06 08 29.510   -74 47 43.35  1.1095 1.4585  87.4 19.9  34d 169
2023 10 08 18  06 08 28.558   -74 47 50.30  1.1100 1.4588  87.4 19.9  34d 169
2023 10 08 19  06 08 27.590   -74 47 57.23  1.1105 1.4591  87.3 19.9  34d 169
2023 10 08 20  06 08 26.607   -74 48 04.14  1.1110 1.4594  87.3 19.9  34d 169
2023 10 08 21  06 08 25.609   -74 48 11.03  1.1114 1.4596  87.3 19.9  34d 169
2023 10 08 22  06 08 24.594   -74 48 17.89  1.1119 1.4599  87.3 19.9  34d 169
2023 10 08 23  06 08 23.565   -74 48 24.74  1.1124 1.4602  87.3 19.9  34d 169
2023 10 09 00  06 08 22.520   -74 48 31.57  1.1129 1.4605  87.3 19.9  34d 169
2023 10 09 01  06 08 21.459   -74 48 38.37  1.1133 1.4607  87.3 19.9  34d 169
2023 10 09 02  06 08 20.383   -74 48 45.16  1.1138 1.4610  87.3 19.9  34d 169
2023 10 09 03  06 08 19.291   -74 48 51.93  1.1143 1.4613  87.3 19.9  34d 169
2023 10 09 04  06 08 18.184   -74 48 58.67  1.1148 1.4616  87.3 19.9  34d 169
2023 10 09 05  06 08 17.062   -74 49 05.40  1.1153 1.4618  87.3 19.9  34d 169
2023 10 09 06  06 08 15.924   -74 49 12.10  1.1157 1.4621  87.3 19.9  34d 169
2023 10 09 07  06 08 14.771   -74 49 18.79  1.1162 1.4624  87.3 19.9  34d 169
2023 10 09 08  06 08 13.602   -74 49 25.45  1.1167 1.4627  87.3 19.9  34d 169
2023 10 09 09  06 08 12.418   -74 49 32.09  1.1172 1.4630  87.3 19.9  34d 169
2023 10 09 10  06 08 11.218   -74 49 38.72  1.1176 1.4632  87.3 19.9  34d 169
2023 10 09 11  06 08 10.003   -74 49 45.32  1.1181 1.4635  87.3 19.9  34d 169
2023 10 09 12  06 08 08.773   -74 49 51.90  1.1186 1.4638  87.3 19.9  34d 169
2023 10 09 13  06 08 07.528   -74 49 58.46  1.1191 1.4641  87.3 19.9  34d 169
2023 10 09 14  06 08 06.267   -74 50 05.00  1.1195 1.4643  87.3 19.9  34d 169
2023 10 09 15  06 08 04.990   -74 50 11.51  1.1200 1.4646  87.3 19.9  34d 169
2023 10 09 16  06 08 03.699   -74 50 18.01  1.1205 1.4649  87.2 19.9  34d 169
2023 10 09 17  06 08 02.392   -74 50 24.49  1.1210 1.4652  87.2 19.9  35d 169
2023 10 09 18  06 08 01.070   -74 50 30.94  1.1214 1.4654  87.2 19.9  35d 169
2023 10 09 19  06 07 59.732   -74 50 37.38  1.1219 1.4657  87.2 19.9  35d 169
2023 10 09 20  06 07 58.380   -74 50 43.79  1.1224 1.4660  87.2 19.9  35d 169
2023 10 09 21  06 07 57.012   -74 50 50.18  1.1229 1.4663  87.2 19.9  35d 169
2023 10 09 22  06 07 55.628   -74 50 56.56  1.1233 1.4666  87.2 19.9  35d 169
2023 10 09 23  06 07 54.230   -74 51 02.91  1.1238 1.4668  87.2 19.9  35d 169
2023 10 10 00  06 07 52.816   -74 51 09.23  1.1243 1.4671  87.2 19.9  35d 169
2023 10 10 01  06 07 51.388   -74 51 15.54  1.1247 1.4674  87.2 19.9  35d 169
2023 10 10 02  06 07 49.943   -74 51 21.83  1.1252 1.4677  87.2 19.9  35d 169
2023 10 10 03  06 07 48.484   -74 51 28.09  1.1257 1.4680  87.2 19.9  35d 169
2023 10 10 04  06 07 47.010   -74 51 34.34  1.1262 1.4682  87.2 19.9  35d 169
2023 10 10 05  06 07 45.520   -74 51 40.56  1.1266 1.4685  87.2 19.9  35d 169
2023 10 10 06  06 07 44.016   -74 51 46.76  1.1271 1.4688  87.2 19.9  35d 169
2023 10 10 07  06 07 42.496   -74 51 52.94  1.1276 1.4691  87.2 19.9  35d 169
2023 10 10 08  06 07 40.961   -74 51 59.10  1.1280 1.4693  87.2 19.9  35d 169
2023 10 10 09  06 07 39.411   -74 52 05.23  1.1285 1.4696  87.2 19.9  35d 169
2023 10 10 10  06 07 37.846   -74 52 11.35  1.1290 1.4699  87.2 19.9  35d 169
2023 10 10 11  06 07 36.265   -74 52 17.44  1.1295 1.4702  87.2 19.9  35d 169
2023 10 10 12  06 07 34.670   -74 52 23.51  1.1299 1.4705  87.2 19.9  35d 169
2023 10 10 13  06 07 33.060   -74 52 29.56  1.1304 1.4707  87.2 19.9  35d 169
2023 10 10 14  06 07 31.434   -74 52 35.58  1.1309 1.4710  87.1 19.9  35d 169
2023 10 10 15  06 07 29.794   -74 52 41.59  1.1313 1.4713  87.1 19.9  35d 169
2023 10 10 16  06 07 28.138   -74 52 47.57  1.1318 1.4716  87.1 19.9  35d 169